ATLAS CENTAUR R/B

Last updated on Wed Jul 02 2025 00:02:13 GMT+0000 (Coordinated Universal Time)

1 06155U 72065B 25182.47298240 .00000910 00000+0 12996-3 0 9990 2 06155 35.0029 336.9329 0033725 56.2318 304.1588 14.76815536804094
UTC large
Height (km)
Speed (km/s)
/
Latitude / Longitude
Inclination (degrees)
Orbital Period (minutes)
Azimuth
Elevation
Range (km)
Doppler Factor

Next 0 passes for location: London (51.5072 / 0.1276)

Sorry there are no passes over London.